Terug naar catalogus

ORBCOMM FM 24

ActiefCommunicatieLEO
NORAD 25478·PAYLOAD·🇺🇸 United States

Gelanceerd Sep 23, 1998 vanaf Cape Canaveral Space Force Station

Loading…

Volgende Passages (komende 24 uur)

TLE

VersSource: Space-Track

Epoch: Sep 13, 2026, 17:37 UTC

1 25478U 98053D   26256.73415481  .00000507  00000-0  20736-3 0  9998
2 25478  45.0074 276.3731 0003797 300.0743  59.9729 14.39266926462764

Volg ORBCOMM FM 24 in realtime met AllMySat

Download on the App Store